Weather History for KPNA - August, 2013

Change the Weather History Date:

Saturday, August 10, 2013

  Actual Average (KBPI) Record (KBPI)
Temperature  
Mean Temperature 60 °F 61 °F  
Max Temperature 75 °F 81 °F 90 °F (2003)
Min Temperature 44 °F 42 °F 31 °F (1980)
Degree Days  
Heating Degree Days 6 4  
Month to date heating degree days 36  
Since 1 June heating degree days 458  
Since 1 July heating degree days 153  
Cooling Degree Days 0 1  
Month to date cooling degree days 10  
Year to date cooling degree days 34  
Since 1 June cooling degree days 34  
Growing Degree Days 10 (Base 50)    
Moisture  
Dew Point 35 °F    
Average Humidity 44    
Maximum Humidity 81    
Minimum Humidity 18    
Precipitation  
Precipitation 0.00 in 0.02 in 0.61 in (1997)
Month to date precipitation 0.23  
Year to date precipitation 4.20  
Sea Level Pressure  
Sea Level Pressure 30.32 in    
Wind  
Wind Speed 4 mph (WNW)    
Max Wind Speed 22 mph    
Max Gust Speed 29 mph    
Visibility 10 miles    
Events      
T = Trace of Precipitation, MM = Missing Value Source: NWS Daily Summary

Daily Weather History Graph

Daily Weather History Graph

Search for Another Location

Airport or City:

Trip Planner

Search our weather history database for the weather conditions in past years. The results will help you decide how hot, cold, wet, or windy it might be!

Date:

Astronomy

Aug. 10, 2013 Rise Set
Actual Time 6:20 AM MDT 8:27 PM MDT
Civil Twilight 5:49 AM MDT 8:58 PM MDT
Nautical Twilight 5:11 AM MDT 9:36 PM MDT
Astronomical Twilight 4:29 AM MDT 10:18 PM MDT
Moon 10:17 AM MDT (8/10) 10:03 PM MDT (8/10)
Length of Visible Light 15h 09m
Length of Day
14h 07m
Waxing Crescent, 14% of the Moon is Illuminated
Aug 10
Waxing Crescent
Aug 14
First Quarter
Aug 20
Full
Aug 28
Last Quarter
Sep 5
New

Hourly Weather History & Observations

Time (MDT) Temp. Windchill Dew Point Humidity Pressure Visibility Wind Dir Wind Speed Gust Speed Precip Events Conditions
12:15 AM 55.4 °F - 41.0 °F 58% 30.32 in 10.0 mi Calm Calm - N/A   Scattered Clouds
12:35 AM 55.4 °F - 41.0 °F 58% 30.32 in 10.0 mi Calm Calm - N/A   Mostly Cloudy
12:55 AM 53.6 °F - 39.2 °F 58% 30.31 in 10.0 mi Calm Calm - N/A   Scattered Clouds
1:15 AM 53.6 °F - 37.4 °F 54% 30.32 in 10.0 mi Calm Calm - N/A   Clear
1:35 AM 51.8 °F - 37.4 °F 58% 30.32 in 10.0 mi Calm Calm - N/A   Clear
1:55 AM 50.0 °F - 37.4 °F 62% 30.32 in 10.0 mi Calm Calm - N/A   Scattered Clouds
2:15 AM 48.2 °F - 37.4 °F 66% 30.32 in 10.0 mi North 3.5 mph - N/A   Mostly Cloudy
2:35 AM 50.0 °F - 39.2 °F 66% 30.33 in 10.0 mi WSW 3.5 mph - N/A   Mostly Cloudy
2:55 AM 46.4 °F 43.5 °F 41.0 °F 81% 30.34 in 10.0 mi West 5.8 mph - N/A   Scattered Clouds
3:15 AM 50.0 °F - 41.0 °F 71% 30.34 in 10.0 mi NW 6.9 mph - N/A   Clear
3:35 AM 48.2 °F - 41.0 °F 76% 30.34 in 10.0 mi West 5.8 mph - N/A   Clear
3:55 AM 46.4 °F 43.5 °F 41.0 °F 81% 30.33 in 10.0 mi West 5.8 mph - N/A   Clear
4:15 AM 46.4 °F 44.3 °F 39.2 °F 76% 30.33 in 10.0 mi WNW 4.6 mph - N/A   Clear
4:35 AM 46.4 °F 44.3 °F 37.4 °F 71% 30.33 in 10.0 mi WNW 4.6 mph - N/A   Scattered Clouds
4:55 AM 44.6 °F 41.4 °F 37.4 °F 76% 30.33 in 10.0 mi NW 5.8 mph - N/A   Clear
5:15 AM 46.4 °F 44.3 °F 39.2 °F 76% 30.34 in 10.0 mi West 4.6 mph - N/A   Clear
5:35 AM 46.4 °F 44.3 °F 37.4 °F 71% 30.34 in 10.0 mi West 4.6 mph - N/A   Clear
5:55 AM 46.4 °F 43.5 °F 37.4 °F 71% 30.34 in 10.0 mi WNW 5.8 mph - N/A   Clear
6:15 AM 46.4 °F 43.5 °F 37.4 °F 71% 30.34 in 10.0 mi WNW 5.8 mph - N/A   Clear
6:35 AM 46.4 °F 45.2 °F 39.2 °F 76% 30.35 in 10.0 mi WNW 3.5 mph - N/A   Clear
6:55 AM 46.4 °F 42.9 °F 39.2 °F 76% 30.35 in 10.0 mi NW 6.9 mph - N/A   Clear
7:15 AM 46.4 °F 43.5 °F 39.2 °F 76% 30.35 in 10.0 mi WNW 5.8 mph - N/A   Clear
7:35 AM 46.4 °F 42.9 °F 39.2 °F 76% 30.36 in 10.0 mi West 6.9 mph - N/A   Clear
7:55 AM 48.2 °F - 39.2 °F 71% 30.36 in 10.0 mi WNW 6.9 mph - N/A   Clear
8:15 AM 50.0 °F - 41.0 °F 71% 30.36 in 10.0 mi West 5.8 mph - N/A   Clear
8:35 AM 53.6 °F - 41.0 °F 62% 30.35 in 10.0 mi WNW 6.9 mph - N/A   Clear
8:55 AM 57.2 °F - 41.0 °F 55% 30.36 in 10.0 mi Calm Calm - N/A   Clear
9:15 AM 60.8 °F - 41.0 °F 48% 30.36 in 10.0 mi West 3.5 mph - N/A   Clear
9:35 AM 62.6 °F - 37.4 °F 39% 30.35 in 10.0 mi Calm Calm - N/A   Clear
9:55 AM 64.4 °F - 37.4 °F 37% 30.35 in 10.0 mi Calm Calm - N/A   Clear
10:15 AM 66.2 °F - 35.6 °F 32% 30.35 in 10.0 mi SSE 3.5 mph - N/A   Clear
10:35 AM 68.0 °F - 35.6 °F 30% 30.35 in 10.0 mi Calm Calm - N/A   Clear
10:55 AM 69.8 °F - 35.6 °F 28% 30.34 in 10.0 mi East 3.5 mph - N/A   Clear
11:15 AM 71.6 °F - 35.6 °F 27% 30.34 in 10.0 mi SE 3.5 mph - N/A   Scattered Clouds
11:35 AM 71.6 °F - 35.6 °F 27% 30.34 in 10.0 mi ESE 4.6 mph - N/A   Clear
11:55 AM 71.6 °F - 35.6 °F 27% 30.33 in 10.0 mi Calm Calm - N/A   Clear
12:15 PM 73.4 °F - 32.0 °F 22% 30.32 in 10.0 mi Calm Calm - N/A   Clear
12:35 PM 75.2 °F - 33.8 °F 22% 30.31 in 10.0 mi NW 9.2 mph - N/A   Clear
12:55 PM 71.6 °F - 32.0 °F 23% 30.31 in 10.0 mi NW 9.2 mph - N/A   Scattered Clouds
1:15 PM 73.4 °F - 30.2 °F 20% 30.31 in 10.0 mi NW 13.8 mph - N/A   Scattered Clouds
1:35 PM 73.4 °F - 26.6 °F 18% 30.30 in 10.0 mi North 6.9 mph - N/A   Scattered Clouds
1:55 PM 73.4 °F - 28.4 °F 19% 30.30 in 10.0 mi WNW 10.4 mph - N/A   Mostly Cloudy
2:15 PM 73.4 °F - 32.0 °F 22% 30.31 in 10.0 mi WNW 15.0 mph - N/A   Scattered Clouds
2:35 PM 73.4 °F - 28.4 °F 19% 30.31 in 10.0 mi WNW 11.5 mph - N/A   Scattered Clouds
2:55 PM 71.6 °F - 30.2 °F 22% 30.31 in 10.0 mi WSW 17.3 mph 21.9 mph N/A   Scattered Clouds
3:15 PM 69.8 °F - 28.4 °F 21% 30.32 in 10.0 mi WNW 21.9 mph 28.8 mph N/A   Mostly Cloudy
3:35 PM 71.6 °F - 26.6 °F 19% 30.31 in 10.0 mi WNW 9.2 mph 21.9 mph N/A   Scattered Clouds
3:55 PM 71.6 °F - 26.6 °F 19% 30.30 in 10.0 mi SSW 3.5 mph - N/A   Clear
4:15 PM 71.6 °F - 26.6 °F 19% 30.30 in 10.0 mi Calm Calm - N/A   Scattered Clouds
4:35 PM 73.4 °F - 26.6 °F 18% 30.29 in 10.0 mi Calm Calm - N/A   Clear
4:55 PM 71.6 °F - 32.0 °F 23% 30.30 in 10.0 mi WSW 13.8 mph 20.7 mph N/A   Mostly Cloudy
5:15 PM 69.8 °F - 32.0 °F 25% 30.31 in 10.0 mi WSW 16.1 mph 23.0 mph N/A   Scattered Clouds
5:35 PM 69.8 °F - 32.0 °F 25% 30.31 in 10.0 mi WSW 16.1 mph 21.9 mph N/A   Scattered Clouds
5:55 PM 69.8 °F - 32.0 °F 25% 30.31 in 10.0 mi WNW 12.7 mph - N/A   Overcast
6:15 PM 69.8 °F - 33.8 °F 27% 30.31 in 10.0 mi NW 12.7 mph 17.3 mph N/A   Mostly Cloudy
6:35 PM 68.0 °F - 32.0 °F 26% 30.30 in 10.0 mi NW 10.4 mph - N/A   Clear
6:55 PM 68.0 °F - 33.8 °F 28% 30.29 in 10.0 mi NNW 6.9 mph - N/A   Clear
7:15 PM 68.0 °F - 33.8 °F 28% 30.29 in 10.0 mi NNW 4.6 mph - N/A   Clear
7:35 PM 68.0 °F - 32.0 °F 26% 30.29 in 10.0 mi Calm Calm - N/A   Clear
7:55 PM 66.2 °F - 35.6 °F 32% 30.29 in 10.0 mi Calm Calm - N/A   Clear
8:15 PM 64.4 °F - 33.8 °F 32% 30.30 in 10.0 mi Calm Calm - N/A   Clear
8:35 PM 64.4 °F - 33.8 °F 32% 30.30 in 10.0 mi Calm Calm - N/A   Clear
8:55 PM 60.8 °F - 33.8 °F 36% 30.30 in 10.0 mi WNW 3.5 mph - N/A   Clear
9:15 PM 60.8 °F - 33.8 °F 36% 30.31 in 10.0 mi Calm Calm - N/A   Clear
9:35 PM 60.8 °F - 35.6 °F 39% 30.31 in 10.0 mi Calm Calm - N/A   Clear
9:55 PM 59.0 °F - 37.4 °F 45% 30.31 in 10.0 mi Calm Calm - N/A   Scattered Clouds
10:15 PM 55.4 °F - 35.6 °F 47% 30.32 in 10.0 mi Calm Calm - N/A   Scattered Clouds
10:35 PM 55.4 °F - 35.6 °F 47% 30.32 in 10.0 mi Calm Calm - N/A   Scattered Clouds
10:55 PM 55.4 °F - 35.6 °F 47% 30.33 in 10.0 mi ESE 4.6 mph - N/A   Clear
11:15 PM 53.6 °F - 35.6 °F 51% 30.34 in 10.0 mi ESE 4.6 mph - N/A   Scattered Clouds
11:35 PM 59.0 °F - 32.0 °F 36% 30.34 in 10.0 mi South 10.4 mph - N/A   Scattered Clouds
11:55 PM 60.8 °F - 32.0 °F 34% 30.34 in 10.0 mi South 6.9 mph - N/A   Scattered Clouds